{"data":{"norad_id":63467,"epoch":"2026-05-24T20:23:47.097888Z","epoch_age_seconds":84160,"freshness":"FRESH","line1":"1 63467U 25070H   26144.84985067  .00012357  00000+0  45755-3 0  9990","line2":"2 63467  43.0011 189.7519 0002222 275.2312  84.8286 15.27598143 64626","mean_motion":15.27598143,"eccentricity":0.0002222,"inclination_deg":43.0011,"raan_deg":189.7519,"arg_perigee_deg":275.2312,"mean_anomaly_deg":84.8286,"bstar":0.00045755,"rev_number":6462,"period_min":94.26562912495,"perigee_km":481.47022642916,"apogee_km":484.51931338771,"semimajor_km":6861.1317699084,"source":"CELESTRAK","updated_at":"2026-05-25T13:38:20.005847Z"}}